IRIDIUM 33 DEB, 34538

Orbit data source: Space-Track

IRIDIUM 33 DEB, 34538 is space debris in LEO originally from a launch on Sun, 14 Sep 1997 UTC launched from the Tyuratam Missile And Space Complex (TTMTR). The debris from Iridium 33, an American commercial communications satellite, has been tracked extensively since its accidental collision with the defunct Russian satellite Cosmos 2251 in 2009. This event, occurring at high speed in low Earth orbit (LEO), generated thousands of pieces of space debris, significantly increasing the risk of further collisions. The Iridium 33 debris cloud has impacted space traffic management and orbital debris mitigation strategies, making it a subject of ongoing study in space situational awareness.

Loading next visibility...
Identifier
34538, 1997-051JF
Orbit
LEO
Country
Flag of USUS
Related business
Manufacturer
Unknown
Mission
Spacecraft
Bus & Motor
Unknown
Mass
Unknown
Launch date (UTC)
1997-09-14 (29 years ago)
Launch vehicle
Unknown
Launch site
Tyuratam Missile And Space Complex (TTMTR)
Object type
Payload
Rocket body
Debris
Shape & HBR
Unknown shape, 0.1 m
Radar Cross Section
Medium (>0.1 m² and <1 m²)

Expand to show TLE details & history
Last TLE update: 14 hours ago

TLE from 14 hours ago
0 IRIDIUM 33 DEB
1 34538U 97051JF  26169.28020188  .00001495  00000-0  43108-3 0  9996
2 34538  86.2750 283.3312 0035908  66.7805 322.4949 14.43696830904619
Epoch: 2026-06-18T06:43Z
TLE epoch observation values (Epoch: 2026-06-18T06:43:29.442Z)
Latitude
29.0032°
Longitude
-82.00993°
Altitude
729.777 km
Speed
7.503 km/s
True Right ascension
19h 01m 33s
True Declination
28° 51' 25"
Sunlit
Object was in full shadow at epoch
Visualization orbit readout
Latitude
Unknown
Longitude
Unknown
Altitude
Unknown
Speed
Unknown
Apparent Right ascension
Unknown
Apparent Declination
Unknown
Sunlit
N/A
Visualization observer readout
Local Sidereal Time
07:09:20
Azimuth
Unknown
Elevation
Unknown
Doppler factor
Unknown
Orbital elements
Apogee altitude
768.835 km
Perigee altitude
717.692 km
Semi-major axis
7,121.401 km
Eccentricity
0.00359
Inclination
86.275°
RAAN
283.3312°
Arg. of periapsis
66.7805°
True anomaly
322.24349°
Mean anomaly
322.4949°
Eccentric anomaly
322.36928°
Mean motion
3.61156 °/min
Orbital period
99.68 mins
BSTAR
0.00043108
Loading maneuver chart data...
Computing Atmospheric mass density...

Documentation

Showing up to 5 results
|